Regional Weather Roundup
Issued by NWS

Home | Current Version | Previous Version | Graphics & Text | Print | Product List | Glossary On
Versions: 1 2 3 4 5 6 7 8 9 10 11 12 13 14 15 16 17 18 19 20 21 22 23 24 25 26 27 28 29 30 31 32 33 34 35 36 37 38 39 40 41 42 43 44 45 46 47 48 49 50
000
ASUS45 KBOI 070610
RWRID

IDAHO REGIONAL WEATHER ROUNDUP
NATIONAL WEATHER SERVICE BOISE ID
1100 PM MST SAT FEB 06 2016

NOTE: "FAIR" INDICATES FEW OR NO CLOUDS BELOW 12000 FEET
WITH NO SIGNIFICANT WEATHER AND/OR OBSTRUCTIONS TO VISIBILITY

IDZ012-014-070700-
SOUTHWEST IDAHO


CITY           SKY/WX    TMP DP  RH WIND       PRES   REMARKS
BOISE          PTCLDY    31  29  92 CALM      30.46S FOG
CALDWELL       PTCLDY    30  28  92 CALM      30.48S
MOUNTAIN HOME  CLEAR     31  31 100 CALM      30.46S
$$

IDZ016-017-070700-
SOUTHCENTRAL IDAHO


CITY           SKY/WX    TMP DP  RH WIND       PRES   REMARKS
BURLEY         MOCLDY    37  28  70 W10       30.41R WCI  30
JEROME         PTCLDY    33  27  78 SW7       30.44R WCI  27
TWIN FALLS     MOCLDY    35  25  66 S12       30.44R WCI  27
$$

IDZ019>023-070700-
SOUTHEAST IDAHO


CITY           SKY/WX    TMP DP  RH WIND       PRES   REMARKS
IDAHO FALLS    CLOUDY    20  17  88 N6        30.41R WCI  12
POCATELLO      CLOUDY    32  26  78 SW10      30.42R WCI  24
REXBURG        CLOUDY    20  17  88 CALM      30.39R
$$

IDZ006-010-011-018-031-032-070700-
CENTRAL IDAHO MOUNTAINS


CITY           SKY/WX    TMP DP  RH WIND       PRES   REMARKS
MCCALL         CLOUDY    27  24  89 CALM      30.39S
HAILEY         PTCLDY    23  19  86 NW6       30.40S WCI  16
STANLEY          N/A     26  19  74 CALM      30.40R
SALMON         CLOUDY    25  18  74 S3        30.36R
CHALLIS        MOCLDY    26  17  68 SW8       30.35S WCI  18
$$

IDZ002-004-006-007-026-070700-
NORTHERN IDAHO


CITY           SKY/WX    TMP DP  RH WIND       PRES   REMARKS
LEWISTON       MOCLDY    40  30  67 E5        30.45S
LOWELL           N/A     36  33  89 N3        30.50R
COEUR D`ALENE  CLEAR     32  30  93 CALM      30.40S
MULLAN PASS    CLEAR     20  17  88 NW7       30.30R WCI  11
$$



USA.gov is the U.S. government's official web portal to all federal, state and local government web resources and services.